Location: Cincinnati Observatory Center
(39.1389°N, 84.4225°W)
Time: 10:21:54
(UTC-04:00)

Amateur Radio Satellites - All Passes

Search period start: 28 July 2014 09:51
Search period end: 29 July 2014 09:51
Location: Cincinnati Observatory Center, 39.1389°N, 84.4225°W

Satellite Date Start Highest point End Downlink Frequencies (MHz)
Time Altitude Azimuth
SO-67 28 Jul 09:53:40 09:55:30 14° 292° (WNW) 09:57:19 435.3500 MHz FM
Sapphire 28 Jul 10:03:10 10:07:30 24° 49° (NE) 10:11:49 437.095 MHz 1200 baud AX-25 AFSK
Oscar 11 28 Jul 10:11:34 10:12:39 11° 90° (E) 10:13:43 145.825 FM, Beacon 2401.500 USB
PCSat 28 Jul 10:36:11 10:41:23 45° 56° (NE) 10:46:33 145.825 MHz
UKube-1 28 Jul 10:58:46 11:03:09 78° 102° (ESE) 11:07:29 145.840 MHz, 145.915 MHz
KITSAT 1 28 Jul 11:04:33 11:05:58 11° 341° (NNW) 11:07:23 435.175 FM
HO-68 28 Jul 11:12:59 11:20:07 75° 288° (WNW) 11:27:13 435.675 MHz FM
Oscar 11 28 Jul 11:44:55 11:49:12 61° 285° (WNW) 11:53:28 145.825 FM, Beacon 2401.500 USB
Sapphire 28 Jul 11:45:58 11:51:13 52° 247° (WSW) 11:56:26 437.095 MHz 1200 baud AX-25 AFSK
FUNcube-1 28 Jul 12:04:04 12:08:15 78° 102° (ESE) 12:12:28 145.950 - 145.970 MHz USB
PCSat 28 Jul 12:20:12 12:24:29 24° 253° (WSW) 12:28:45 145.825 MHz
SO-50 28 Jul 12:26:43 12:29:16 15° 109° (ESE) 12:31:51 436.795 FM
Oscar 19 28 Jul 13:02:09 13:04:44 14° 61° (ENE) 13:07:21 437.125 CW, 437.150 USB
HO-68 28 Jul 13:03:14 13:06:37 14° 307° (NW) 13:10:01 435.675 MHz FM
AO-Echo 28 Jul 13:25:08 13:26:47 11° 59° (ENE) 13:28:26 ?
Oscar 16 28 Jul 13:28:30 13:32:42 26° 67° (ENE) 13:36:55 437.025 USB, Beacon 2401.1428
RS-15 28 Jul 13:34:25 13:44:36 43° 109° (ESE) 13:54:31 29.354 - 29.394 USB, Beacon 29.352 USB
ITAMSAT 1 28 Jul 13:48:44 13:52:17 19° 63° (ENE) 13:55:50 435.822 SSB
JAS-1B 28 Jul 13:51:35 13:58:31 25° 55° (NE) 14:05:52 435.800 - 435.900 CW/SSB
SO-50 28 Jul 14:04:59 14:09:20 53° 305° (NW) 14:13:48 436.795 FM
AO-27 28 Jul 14:06:46 14:11:09 28° 67° (ENE) 14:15:32 436.795 MHz FM
Uribyol 2 28 Jul 14:07:18 14:11:44 29° 67° (ENE) 14:16:10 436.500 FM
Gurwin Techsat 1B 28 Jul 14:26:34 14:30:00 18° 63° (ENE) 14:33:26 435.225 FM
UOSAT-12 28 Jul 14:30:29 14:33:51 20° 110° (ESE) 14:37:17 437.025 FM, 437.400 FM
Oscar 19 28 Jul 14:38:23 14:43:28 71° 258° (WSW) 14:48:35 437.125 CW, 437.150 USB
AO-7 28 Jul 14:55:45 14:59:50 15° 48° (NE) 15:03:55 29.400 - 29.500 MHz
KITSAT 1 28 Jul 14:58:28 15:05:09 27° 43° (NE) 15:11:47 435.175 FM
AO-Echo 28 Jul 14:59:24 15:04:43 87° 76° (ENE) 15:10:04 ?
Oscar 16 28 Jul 15:07:14 15:11:53 35° 263° (W) 15:16:34 437.025 USB, Beacon 2401.1428
ITAMSAT 1 28 Jul 15:26:15 15:31:20 54° 260° (W) 15:36:27 435.822 SSB
JAS-1B 28 Jul 15:38:56 15:47:41 86° 256° (WSW) 15:57:36 435.800 - 435.900 CW/SSB
TMSAT-1 28 Jul 15:40:13 15:45:25 61° 73° (ENE) 15:50:39 436.925 FM
AO-27 28 Jul 15:45:47 15:50:30 34° 263° (W) 15:55:15 436.795 MHz FM
RS-15 28 Jul 15:45:47 15:56:36 55° 310° (NW) 16:07:18 29.354 - 29.394 USB, Beacon 29.352 USB
Uribyol 2 28 Jul 15:46:27 15:51:05 32° 263° (W) 15:55:44 436.500 FM
Gurwin Techsat 1B 28 Jul 16:04:14 16:09:27 59° 259° (W) 16:14:43 435.225 FM
UOSAT-12 28 Jul 16:09:18 16:13:41 43° 307° (NW) 16:18:10 437.025 FM, 437.400 FM
Saudisat 1A 28 Jul 16:21:16 16:24:13 17° 44° (NE) 16:27:09 436.775 MHz
AO-7 28 Jul 16:42:49 16:51:03 67° 68° (ENE) 16:59:19 29.400 - 29.500 MHz
AO-Echo 28 Jul 16:43:12 16:44:06 10° 272° (W) 16:45:00 ?
KITSAT 1 28 Jul 16:53:16 17:01:21 77° 244° (WSW) 17:09:22 435.175 FM
Uosat F 28 Jul 16:56:14 17:01:16 74° 74° (ENE) 17:06:19 435.120 FM
TMSAT-1 28 Jul 17:22:36 17:25:43 16° 269° (W) 17:28:51 436.925 FM
JAS-1B 28 Jul 17:33:49 17:39:32 18° 275° (W) 17:45:40 435.800 - 435.900 CW/SSB
OPAL 28 Jul 17:47:00 17:52:06 77° 105° (ESE) 17:57:14 ?
Saudisat 1A 28 Jul 17:59:50 18:04:10 58° 242° (WSW) 18:08:28 436.775 MHz
RS-15 28 Jul 18:04:35 18:12:12 21° 340° (NNW) 18:19:51 29.354 - 29.394 USB, Beacon 29.352 USB
Hamsat 28 Jul 18:05:10 18:08:32 24° 69° (ENE) 18:11:55 145.90 MHz
JAS-2 28 Jul 18:06:29 18:13:22 36° 67° (ENE) 18:19:52 435.800 - 435.900 CW/SSB, 435.910 FM
AO-7 28 Jul 18:37:43 18:44:20 26° 265° (W) 18:51:01 29.400 - 29.500 MHz
Uosat F 28 Jul 18:38:50 18:40:33 12° 270° (W) 18:42:16 435.120 FM
KITSAT 1 28 Jul 18:52:08 18:55:23 13° 261° (W) 18:58:38 435.175 FM
OPAL 28 Jul 19:27:56 19:30:21 14° 301° (WNW) 19:32:46 ?
Hamsat 28 Jul 19:40:55 19:44:24 26° 265° (W) 19:47:55 145.90 MHz
JAS-2 28 Jul 19:50:38 19:58:08 48° 261° (W) 20:05:16 435.800 - 435.900 CW/SSB, 435.910 FM
HO-68 28 Jul 19:56:55 20:00:17 14° 53° (NE) 20:03:39 435.675 MHz FM
STRAND 1 28 Jul 20:09:32 20:14:32 53° 100° (E) 20:19:29 ?
RS-15 28 Jul 20:23:07 20:30:29 19° 17° (NNE) 20:37:56 29.354 - 29.394 USB, Beacon 29.352 USB
SO-67 28 Jul 20:24:14 20:27:34 45° 261° (W) 20:30:55 435.3500 MHz FM
SO-50 28 Jul 20:58:17 21:00:59 15° 42° (NE) 21:03:42 436.795 FM
MaSat-1 28 Jul 21:06:03 21:08:03 13° 99° (E) 21:10:11 437.345 MHz
HO-68 28 Jul 21:39:39 21:46:47 74° 71° (ENE) 21:53:56 435.675 MHz FM
STRAND 1 28 Jul 21:49:52 21:53:17 18° 297° (WNW) 21:56:41 ?
UKube-1 28 Jul 21:53:04 21:57:21 58° 74° (ENE) 22:01:39 145.840 MHz, 145.915 MHz
RS-15 28 Jul 22:35:50 22:46:28 50° 48° (NE) 22:57:24 29.354 - 29.394 USB, Beacon 29.352 USB
SO-50 28 Jul 22:37:22 22:42:09 84° 240° (WSW) 22:46:59 436.795 FM
Oscar 11 28 Jul 22:38:34 22:42:53 90° 67° (ENE) 22:47:12 145.825 FM, Beacon 2401.500 USB
MaSat-1 28 Jul 22:40:45 22:44:40 50° 299° (WNW) 22:49:15 437.345 MHz
FUNcube-1 28 Jul 22:59:22 23:03:36 53° 74° (ENE) 23:07:45 145.950 - 145.970 MHz USB
UOSAT-12 28 Jul 23:00:43 23:03:49 17° 43° (NE) 23:06:53 437.025 FM, 437.400 FM
HO-68 28 Jul 23:30:17 23:35:05 19° 268° (W) 23:39:55 435.675 MHz FM
UKube-1 28 Jul 23:32:22 23:33:54 12° 269° (W) 23:35:26 145.840 MHz, 145.915 MHz
ISS 29 Jul 00:28:42 00:32:02 83° 141° (SE) 00:35:24 145.800 FM
FUNcube-1 29 Jul 00:38:36 00:40:17 12° 269° (W) 00:41:57 145.950 - 145.970 MHz USB
UOSAT-12 29 Jul 00:39:45 00:44:27 69° 241° (WSW) 00:49:04 437.025 FM, 437.400 FM
Sapphire 29 Jul 00:44:27 00:48:41 24° 107° (ESE) 00:52:56 437.095 MHz 1200 baud AX-25 AFSK
RS-15 29 Jul 00:48:23 00:58:49 50° 250° (WSW) 01:09:40 29.354 - 29.394 USB, Beacon 29.352 USB
PCSat 29 Jul 01:16:41 01:21:53 51° 113° (ESE) 01:27:07 145.825 MHz
AO-40 29 Jul 02:02:12 04:08:50 19° 118° (ESE) 05:16:20 Beacon 2401.320
ISS 29 Jul 02:06:45 02:09:07 18° 338° (NNW) 02:11:30 145.800 FM
Uribyol 2 29 Jul 02:24:14 02:24:44 10° 89° (E) 02:25:14 436.500 FM
Sapphire 29 Jul 02:26:38 02:31:47 45° 304° (WNW) 02:36:59 437.095 MHz 1200 baud AX-25 AFSK
Oscar 19 29 Jul 02:51:10 02:56:07 45° 99° (E) 03:01:04 437.125 CW, 437.150 USB
PCSat 29 Jul 03:01:15 03:05:34 24° 311° (NW) 03:09:55 145.825 MHz
AO-Echo 29 Jul 03:08:42 03:13:08 30° 96° (E) 03:17:25 ?
Oscar 16 29 Jul 03:19:23 03:24:35 89° 104° (ESE) 03:29:46 437.025 USB, Beacon 2401.1428
OPAL 29 Jul 03:25:12 03:27:47 14° 60° (ENE) 03:30:23 ?
JAS-1B 29 Jul 03:27:54 03:36:16 37° 93° (E) 03:43:30 435.800 - 435.900 CW/SSB
ITAMSAT 1 29 Jul 03:40:11 03:45:19 60° 101° (E) 03:50:24 435.822 SSB
TMSAT-1 29 Jul 03:57:46 04:02:10 26° 95° (E) 04:06:32 436.925 FM
AO-27 29 Jul 03:59:22 04:04:34 88° 284° (WNW) 04:09:45 436.795 MHz FM
Uribyol 2 29 Jul 03:59:38 04:04:49 84° 285° (WNW) 04:09:58 436.500 FM
Gurwin Techsat 1B 29 Jul 04:21:31 04:26:48 62° 101° (E) 04:32:02 435.225 FM
Oscar 19 29 Jul 04:31:17 04:35:08 22° 295° (WNW) 04:38:59 437.125 CW, 437.150 USB
AO-7 29 Jul 04:47:00 04:53:07 22° 93° (E) 04:59:11 29.400 - 29.500 MHz
AO-Echo 29 Jul 04:47:30 04:51:48 29° 293° (WNW) 04:55:59 ?
OPAL 29 Jul 05:01:11 05:06:06 68° 256° (WSW) 05:11:02 ?
Oscar 16 29 Jul 05:01:35 05:03:10 11° 300° (WNW) 05:04:45 437.025 USB, Beacon 2401.1428
Uosat F 29 Jul 05:05:49 05:09:52 24° 95° (E) 05:13:54 435.120 FM
JAS-1B 29 Jul 05:18:01 05:26:58 51° 294° (WNW) 05:34:42 435.800 - 435.900 CW/SSB
ITAMSAT 1 29 Jul 05:21:06 05:24:17 17° 298° (WNW) 05:27:29 435.822 SSB
ISS 29 Jul 05:22:38 05:24:48 16° 19° (NNE) 05:26:58 145.800 FM
KITSAT 1 29 Jul 05:28:38 05:33:20 17° 101° (E) 05:38:02 435.175 FM
TMSAT-1 29 Jul 05:37:19 05:42:08 37° 291° (WNW) 05:46:55 436.925 FM
AO-27 29 Jul 05:42:00 05:43:16 11° 301° (WNW) 05:44:32 436.795 MHz FM
Uribyol 2 29 Jul 05:42:51 05:43:26 10° 302° (WNW) 05:44:02 436.500 FM
PANSAT 29 Jul 05:50:12 05:52:01 13° 168° (SSE) 05:53:51 not established
Gurwin Techsat 1B 29 Jul 06:02:55 06:06:14 17° 298° (WNW) 06:09:32 435.225 FM
AO-7 29 Jul 06:38:16 06:46:35 75° 291° (WNW) 06:54:49 29.400 - 29.500 MHz
Uosat F 29 Jul 06:44:09 06:48:43 36° 291° (WNW) 06:53:14 435.120 FM
ISS 29 Jul 06:58:37 07:02:00 75° 37° (NE) 07:05:20 145.800 FM
MaSat-1 29 Jul 07:00:03 07:04:51 34° 57° (ENE) 07:09:26 437.345 MHz
JAS-2 29 Jul 07:03:21 07:08:04 25° 92° (E) 07:12:25 435.800 - 435.900 CW/SSB, 435.910 FM
JAS-1B 29 Jul 07:12:14 07:15:00 12° 316° (NW) 07:17:41 435.800 - 435.900 CW/SSB
KITSAT 1 29 Jul 07:19:29 07:27:35 89° 118° (ESE) 07:35:45 435.175 FM
STRAND 1 29 Jul 07:24:16 07:29:22 69° 74° (ENE) 07:34:29 ?
Hamsat 29 Jul 07:26:48 07:31:03 58° 100° (E) 07:35:19 145.90 MHz
PANSAT 29 Jul 07:29:01 07:31:33 17° 181° (S) 07:34:04 not established
SO-67 29 Jul 07:50:41 07:52:16 13° 92° (E) 07:53:51 435.3500 MHz FM
Saudisat 1A 29 Jul 08:05:07 08:09:20 47° 117° (ESE) 08:13:35 436.775 MHz
AO-7 29 Jul 08:33:17 08:37:58 17° 310° (NW) 08:42:39 29.400 - 29.500 MHz
ISS 29 Jul 08:37:18 08:38:15 11° 232° (SW) 08:39:13 145.800 FM
MaSat-1 29 Jul 08:37:30 08:42:07 31° 255° (WSW) 08:46:28 437.345 MHz
JAS-2 29 Jul 08:47:54 08:53:22 39° 292° (WNW) 08:58:20 435.800 - 435.900 CW/SSB, 435.910 FM
Hamsat 29 Jul 09:04:42 09:06:31 13° 296° (WNW) 09:08:21 145.90 MHz
STRAND 1 29 Jul 09:06:41 09:09:01 13° 269° (W) 09:11:21 ?
PANSAT 29 Jul 09:09:38 09:11:03 12° 194° (SSW) 09:12:27 not established
HO-68 29 Jul 09:11:30 09:14:38 13° 89° (E) 09:17:45 435.675 MHz FM
KITSAT 1 29 Jul 09:17:48 09:24:04 24° 320° (NW) 09:30:22 435.175 FM
SO-67 29 Jul 09:22:19 09:25:27 32° 287° (WNW) 09:28:34 435.3500 MHz FM
Sapphire 29 Jul 09:33:09 09:36:52 18° 46° (NE) 09:40:33 437.095 MHz 1200 baud AX-25 AFSK
UKube-1 29 Jul 09:45:27 09:46:15 10° 91° (E) 09:47:03 145.840 MHz, 145.915 MHz
